This demonstration page uses our WeatherBlox Daily Observations layout. Learn more.

Left ArrowRight Arrow

41.55636, -103.73856

Hourly Observations for July 27, 2016

Temp ( °F °C ) Dew Point ( °F °C ) Humidity (%) Winds ( mph kmh ) Pressure ( in mb ) Visibility ( mi km ) Precip ( " mm )
12:53 am 00:53 Mostly Clear with Thunderstorms 68 20 56 13.3 65 65 NNW 8 13 29.96 1015 10 16 0.00 0.00
1:41 am 01:41 Mostly Cloudy with Light Rain 66 18.9 59 15 78 78 ENE 14 22 29.97 1015 10 16 0.00 0.03
1:53 am 01:53 Partly Cloudy 66 18.9 58 14.4 75 75 ENE 12 19 29.96 1015 10 16 0.00 0.03
2:53 am 02:53 Partly Cloudy with Light Rain 67 19.4 57 13.9 71 71 SE 17 28 29.89 1012 10 16 0.00 0.03
3:00 am 03:00 Mostly Clear 66 19 57 14 73 73 SSE 15 24 29.91 1013 10 16 0.00 0.00
3:53 am 03:53 Clear 66 18.9 58 14.4 75 75 SSE 10 17 29.95 1014 10 16 0.00 0.03
4:53 am 04:53 Clear 64 17.8 58 14.4 81 81 E 9 15 30.00 1016 10 16 0.00 0.00
5:53 am 05:53 Mostly Sunny 65 18.3 59 15 81 81 E 7 11 30.02 1017 10 16 0.00 0.00
6:53 am 06:53 Cloudy with Light Rain 64 17.8 59 15 84 84 NNW 8 13 30.10 1019 10 16 0.00 0.03
7:22 am 07:22 Cloudy with Rain 64 18 61 16 88 88 E 14 22 30.03 1017 9 14 0.00 0.00
7:53 am 07:53 Partly Cloudy 65 18.3 60 15.6 84 84 E 8 13 30.08 1019 10 16 0.01 0.25
8:53 am 08:53 Sunny 69 20.6 60 15.6 73 73 E 13 20 30.00 1016 10 16 0.00 0.00
9:53 am 09:53 Sunny 74 23.3 60 15.6 62 62 ENE 3 6 30.03 1017 10 16 0.00 0.00
10:53 am 10:53 Sunny 75 23.9 60 15.6 60 60 VRB 7 11 30.04 1017 10 16 0.00 0.00
11:53 am 11:53 Sunny 79 26.1 57 13.9 47 47 S 6 9 30.01 1016 10 16 0.00 0.00
12:53 pm 12:53 Sunny 84 28.9 55 12.8 37 37 Calm 29.98 1015 10 16 0.00 0.00
1:53 pm 13:53 Sunny 87 30.6 50 10 28 28 ENE 5 7 29.97 1015 10 16 0.00 0.00
2:53 pm 14:53 Sunny 87 30.6 49 9.4 27 27 E 7 11 29.96 1014 10 16 0.00 0.00
3:53 pm 15:53 Sunny 90 32.2 53 11.7 28 28 ESE 7 11 29.94 1014 10 16 0.00 0.00
4:53 pm 16:53 Sunny 89 31.7 53 11.7 29 29 ESE 9 15 29.93 1014 10 16 0.00 0.00
5:49 pm 17:49 Sunny with Nearby Thunderstorms 86 30 57 14 38 38 E 10 17 29.74 1007 10 16 0.00 0.00
5:53 pm 17:53 Sunny with Thunderstorms 85 29.4 56 13.3 37 37 ENE 14 22 29.93 1013 10 16 0.00 0.00
6:53 pm 18:53 Partly Cloudy 83 28.3 55 12.8 38 38 E 10 17 29.94 1014 10 16 0.00 0.03
7:53 pm 19:53 Sunny 78 25.6 55 12.8 45 45 E 8 13 29.98 1015 10 16 0.00 0.00
8:53 pm 20:53 Clear 75 23.9 58 14.4 55 55 ENE 13 20 30.01 1016 10 16 0.00 0.00
9:53 pm 21:53 Partly Cloudy 74 23.3 58 14.4 57 57 NE 14 22 30.06 1018 10 16 0.00 0.00
10:03 pm 22:03 Mostly Cloudy with Nearby Thunderstorms 73 23 57 14 57 57 NE 13 20 29.94 1014 10 16 0.00 0.00
10:11 pm 22:11 Mostly Cloudy with Thunderstorms 73 23 57 14 57 57 N 20 31 29.97 1015 10 16 0.00 0.00
10:34 pm 22:34 Windy with Storms Likely 72 22 59 15 65 65 E 24 39 29.91 1013 10 16 0.00 0.00
10:53 pm 22:53 Mostly Clear 69 20.6 61 16.1 76 76 E 21 33 30.02 1017 10 16 0.00 0.03
11:53 pm 23:53 Clear 68 20 61 16.1 78 78 SE 12 19 30.00 1016 10 16 0.00 0.00

Powered by AerisWeather